ONEWEB-0061 (45428 NORAD) Tracking and Keplerian Element Data

This shows tracking and keplerian element data for the satellite.

Feedback or suggestion? Click here.




ElementValue
Catalog45428
NameONEWEB-0061
Epoch Orbit176
Epoch Day188.91667824
Epoch Year2020
RAAN104.136
Inclination87.509
Eccentricity0.0026127
Argument of Perigee265.0621
Mean Anonmoly162.1387
Mean Motion14.90229239
Decay Rate-0.00054329
L11 45428U 20020E 20188.91667824 -.00054329 00000-0 -56207-2 0 9996
L22 45428 87.5090 104.1360 0026127 265.0621 162.1387 14.90229239 1762

Live tracking and technical data element details for ONEWEB-0061 (NORAD 45428). ONEWEB-0061 can be tracked NOW for your location showing map with azimuth and elevation plus other details from your city location.

Track the satellite on the map from your city or location and see movement details for azimuth, elevation, latitude, longitude, range, height, and movement on the map or in text.







IsCatalogInMostPopularTable: catalog: 45428, numindb: 19
Update: records affected: 1



GetName: 45428 ONEWEB-0061

Hit Count: updated at: Wed, 08 Jul 2020 04:15:34 GMT